Probability
39 42 44 48 53 59 60 57 52 51 50 48 43 39 36 32 27 26 29 30 29 26 23 19 17 18 19 19 18 19 18 14 9 7 6 6 5 5 5 5 3 2 3
41 44 48 52 56 59 59 56 54 52 52 50 46 42 39 34 28 28 31 32 30 26 23 21 19 18 20 20 19 19 18 14 10 8 7 6 6 5 5 4 3 3 3
39 41 46 50 54 56 54 53 55 55 53 50 47 44 39 34 31 31 32 33 30 27 25 22 19 18 19 20 20 19 17 13 10 9 8 7 6 5 5 5 4 3 3
34 35 38 44 48 49 48 50 54 55 51 47 44 41 37 32 30 31 33 34 33 30 26 22 19 17 18 19 19 18 16 12 9 9 8 6 5 5 5 6 5 4 4
29 28 32 38 43 43 44 47 51 52 48 44 42 39 35 30 27 30 35 37 36 33 27 23 21 18 17 17 18 18 15 11 9 8 7 6 4 4 4 5 5 4 5
24 24 27 33 38 39 40 44 46 47 44 41 41 39 34 29 26 28 34 36 36 32 25 22 22 21 19 20 20 18 14 12 11 10 8 6 4 4 4 4 3 4 5
21 22 25 29 32 35 37 39 41 41 39 37 40 40 36 30 26 26 28 29 29 28 25 22 23 23 22 23 22 19 15 13 12 11 9 7 5 6 7 5 4 4 4
18 21 25 27 30 32 34 37 38 37 34 33 36 38 35 28 24 22 22 21 22 22 21 21 22 23 21 21 22 20 17 14 12 10 10 8 7 7 9 8 5 4 4
18 21 25 27 29 31 33 36 38 37 32 29 29 29 28 25 22 21 20 19 19 18 17 18 21 21 18 18 20 19 16 14 11 9 9 9 8 7 8 8 5 4 4
19 23 25 26 28 29 30 34 36 35 30 26 25 23 23 22 22 21 21 20 20 18 17 18 20 19 18 18 18 16 14 12 10 9 8 8 7 6 5 6 5 4 4
20 23 24 25 26 26 27 29 30 29 28 27 25 24 22 20 20 20 19 18 18 17 16 18 19 19 18 18 17 14 12 11 8 8 6 5 4 4 5 5 4 3 3
19 20 20 20 21 24 25 26 26 24 23 25 26 25 21 18 18 18 15 14 14 14 15 17 19 19 18 18 17 15 13 11 8 8 8 5 4 4 5 4 3 2 2
18 18 17 17 19 22 25 25 23 21 19 20 23 22 18 15 16 15 13 12 12 14 15 17 18 18 17 18 18 17 14 12 12 13 12 10 8 7 5 3 2 2 2
19 20 19 18 20 23 25 24 22 19 18 17 18 18 16 15 15 14 13 12 12 13 15 16 16 15 14 15 16 16 13 12 14 16 15 13 10 8 6 3 2 2 3
19 21 20 19 20 21 22 21 21 20 18 15 14 15 15 15 15 15 13 12 11 12 13 13 12 11 10 11 13 12 11 11 13 15 15 11 7 6 4 2 2 2 3
19 18 18 17 18 17 17 18 19 19 15 13 12 13 14 14 13 13 12 12 10 10 9 9 9 8 8 8 8 8 9 10 12 13 13 9 4 2 2 1 1 1 2
21 17 14 14 15 13 12 14 15 14 12 10 11 13 13 12 10 10 11 12 11 9 8 7 7 7 7 6 5 5 8 10 12 13 13 9 5 3 3 2 1 1 1
22 17 12 12 12 11 9 10 11 10 10 10 11 11 10 9 8 8 10 12 12 10 9 7 7 8 7 5 3 4 7 10 11 13 12 10 7 6 6 6 4 4 5
20 16 12 11 12 10 8 8 9 10 10 10 11 11 9 9 9 10 11 12 12 11 9 8 8 9 8 5 2 3 7 10 11 11 10 9 7 6 6 7 7 8 10
15 13 11 11 12 11 10 9 10 11 12 12 12 12 10 11 12 13 13 13 11 10 8 9 9 10 9 5 1 3 7 10 10 9 8 6 4 4 4 5 7 9 11
10 10 10 11 11 11 12 11 12 14 15 15 15 14 13 13 13 13 13 14 12 10 9 10 11 11 10 6 1 2 6 8 8 8 6 3 1 1 1 3 5 6 7
8 9 10 11 11 11 11 12 13 14 15 16 16 16 16 15 13 13 13 14 13 11 10 11 11 10 9 6 2 1 2 4 5 5 4 1 0 0 0 1 1 2 2
6 7 9 10 10 9 9 9 11 12 13 14 15 15 15 15 15 14 12 12 11 10 10 11 11 10 9 7 3 1 0 1 2 3 2 1 0 0 0 0 0 0 0
2 3 5 6 6 6 5 6 8 10 11 12 13 12 11 12 14 13 10 8 8 8 8 10 10 9 8 7 4 1 0 0 1 1 1 0 0 0 0 0 0 0 1
1 1 2 3 3 3 3 5 7 9 11 12 12 10 9 8 9 9 7 5 4 5 6 7 7 7 6 4 3 1 0 1 0 0 0 0 0 0 0 0 2 3 4
1 1 2 3 3 3 3 4 5 8 11 12 12 10 8 7 6 6 5 3 2 3 3 3 3 3 2 1 1 0 0 1 0 0 0 1 1 1 0 1 4 7 8
Wind_Speed
6 6 7 7 7 6 6 6 5 5 4 4 3 3 3 2 2 2 3 3 3 3 2 2 2 2 2 2 3 2 2 1 1 1 1 0 1 1 1 2 2 2 2
6 7 6 6 7 6 6 6 6 5 4 3 2 3 3 2 2 2 3 3 3 3 3 3 2 2 2 2 2 2 1 2 2 1 1 1 1 1 2 2 3 2 2
6 6 6 6 6 6 5 5 5 5 5 4 3 2 2 1 2 3 3 3 3 4 2 4 3 2 2 3 3 3 2 2 1 1 1 1 1 1 1 2 1 2 2
5 5 5 5 5 5 5 5 5 5 4 3 3 4 3 3 3 2 3 3 4 4 3 3 3 3 2 3 4 3 2 2 1 1 1 1 1 1 1 0 1 2 2
4 4 4 5 5 5 5 5 5 5 5 4 3 3 3 3 2 3 3 3 4 4 3 3 3 2 2 3 3 3 2 2 2 1 1 1 0 1 2 1 1 1 1
4 3 2 3 4 4 5 5 6 5 4 4 3 3 3 3 3 3 3 2 2 3 4 3 3 2 2 2 2 2 2 2 1 1 1 1 1 1 1 2 2 1 1
5 5 3 3 3 4 4 5 5 5 4 4 3 3 3 2 3 3 3 3 2 3 4 3 3 2 2 2 2 2 2 2 2 2 1 1 1 1 1 1 1 1 1
5 5 4 4 4 3 3 4 5 4 4 3 2 2 2 2 2 2 2 3 2 3 4 3 3 3 3 3 3 2 2 2 2 3 1 1 1 0 0 1 1 1 1
4 4 4 3 3 4 3 4 4 4 3 3 2 2 2 2 2 2 2 2 1 2 4 4 3 3 3 3 2 2 2 2 2 2 2 1 1 1 1 1 1 1 1
3 4 4 3 3 3 4 4 4 3 3 3 2 2 2 2 1 2 2 2 2 2 3 3 4 3 3 3 3 2 2 2 3 3 2 2 2 1 1 1 1 1 1
4 4 3 3 3 3 3 3 3 3 2 2 2 2 2 2 1 1 2 2 1 2 3 3 3 4 3 3 3 3 4 4 3 3 3 3 2 1 1 1 1 1 1
4 4 3 2 3 2 2 3 3 3 2 2 3 2 2 2 2 2 1 2 2 2 3 3 3 3 3 3 3 3 3 3 3 3 3 3 3 2 1 1 2 1 1
4 4 3 3 2 2 2 2 2 2 2 2 2 2 2 2 2 2 2 2 2 2 3 3 3 3 3 3 3 3 3 3 3 3 3 3 3 3 2 2 2 2 2
4 4 4 3 3 3 2 1 2 2 2 2 2 2 2 1 2 2 2 2 2 2 2 2 3 3 3 3 3 3 3 3 3 3 3 4 4 4 3 2 2 2 2
5 4 4 3 3 3 3 2 2 3 2 2 2 2 2 2 2 2 2 2 2 3 2 2 2 2 3 3 3 3 4 3 3 3 4 3 4 4 3 3 2 2 1
4 4 4 3 2 2 2 2 2 2 2 2 1 1 1 1 1 2 2 1 1 2 2 3 3 3 3 2 3 2 2 3 3 4 3 4 4 5 6 5 4 3 3
3 3 3 3 2 2 2 2 1 2 2 1 1 1 1 1 0 0 1 1 1 1 2 2 2 2 2 4 3 2 2 3 3 4 4 4 4 5 4 5 6 5 6
3 3 2 2 2 2 2 2 1 2 1 1 1 0 0 0 0 0 0 1 1 1 1 2 2 2 3 4 4 4 4 4 4 4 4 4 3 4 3 4 5 4 4
3 3 2 2 2 2 2 1 1 1 1 1 1 1 1 1 1 1 1 1 1 1 2 2 2 3 3 5 5 4 3 3 4 5 4 4 4 4 4 4 4 4 4
4 3 3 2 2 2 1 1 1 1 1 1 1 1 1 1 1 1 1 1 1 2 2 2 2 2 2 5 6 5 3 3 3 3 4 5 4 4 6 5 4 5 4
4 3 2 2 2 1 1 0 0 1 1 1 1 1 1 1 1 1 1 1 2 2 2 2 2 2 3 5 7 7 3 3 3 3 2 3 4 5 6 6 5 6 5
3 3 2 2 2 2 2 1 1 1 1 1 2 1 2 2 1 1 1 1 2 2 2 2 2 2 2 3 6 8 6 5 3 3 2 2 4 5 6 7 7 7 5
3 2 2 2 2 2 2 2 2 1 1 2 2 2 2 2 1 2 2 2 2 3 2 2 2 2 1 2 4 6 6 6 4 3 4 4 5 6 6 9 9 7 5
1 1 2 2 2 2 2 2 2 2 2 2 2 2 2 2 2 2 2 2 2 2 2 2 2 2 1 1 1 2 3 4 4 4 4 5 7 6 7 6 6 6 6
1 1 2 2 1 2 2 2 2 2 2 2 2 3 3 3 2 2 2 2 1 1 2 2 3 2 2 2 2 2 2 3 3 2 3 4 3 4 4 5 5 6 6
1 1 2 2 2 2 3 2 2 2 2 2 3 3 3 2 3 2 2 1 2 2 3 3 3 2 3 3 3 3 4 4 4 3 4 5 4 5 5 5 5 5 6
Wind_Direction
161 142 144 147 144 142 150 157 165 161 161 164 168 171 178 180 165 162 149 155 168 175 169 152 171 176 160 168 168 149 179 184 176 134 133 169 204 177 171 164 165 171 168
157 146 144 143 146 146 151 160 166 166 171 171 174 178 173 178 170 160 151 162 170 177 180 158 182 180 157 161 166 160 181 198 176 166 171 181 153 265 198 171 182 169 162
146 145 148 146 147 149 155 160 157 162 175 176 182 179 170 176 180 172 161 171 176 179 177 163 181 183 171 165 177 177 191 206 206 164 163 182 176 173 197 201 156 153 171
147 144 146 147 149 150 150 147 144 150 158 165 188 189 188 194 193 182 171 176 175 170 174 168 173 183 177 161 187 181 201 189 207 214 234 263 118 149 155 236 176 185 193
143 138 147 146 143 144 147 151 145 152 158 173 188 200 208 200 192 175 173 178 170 171 169 164 169 178 175 172 190 159 187 190 198 221 219 244 218 207 152 183 206 218 180
140 133 151 131 135 136 137 144 149 154 162 174 185 197 213 207 186 172 162 171 168 169 173 171 163 172 172 174 169 179 192 200 213 231 221 197 215 209 178 178 193 197 209
151 150 167 146 139 138 137 133 143 156 164 174 186 205 214 206 175 166 168 178 176 173 173 171 172 167 169 171 167 192 210 211 213 229 242 242 241 207 185 176 204 194 201
148 152 156 151 155 140 133 140 142 148 153 161 171 185 181 189 172 172 182 184 182 173 160 163 168 167 174 172 174 187 202 208 228 237 244 276 271 304 249 170 166 207 225
129 135 122 128 143 136 129 134 142 147 155 162 159 161 169 186 178 170 183 164 160 166 152 163 168 174 176 169 174 181 205 190 210 232 229 269 282 265 278 277 209 193 229
127 122 126 124 117 127 128 131 138 151 158 164 172 166 164 177 174 175 162 156 161 151 155 167 170 175 177 176 179 186 200 196 210 214 208 234 272 279 286 281 281 265 248
119 108 110 124 120 126 127 131 140 147 159 168 165 151 165 169 157 145 138 147 153 158 168 174 173 175 180 180 189 202 197 205 209 217 201 203 244 265 268 275 276 260 254
106 105 102 104 109 114 129 136 138 148 160 172 170 159 154 148 148 157 157 149 167 179 172 178 175 182 181 182 191 206 198 199 203 211 203 203 221 228 278 280 278 283 268
104 105 99 86 85 106 121 129 137 142 158 162 158 143 137 149 158 165 161 166 177 183 182 179 182 189 185 189 193 202 204 200 206 213 215 213 210 211 230 253 257 257 266
107 101 92 78 64 57 81 88 102 116 130 135 135 131 134 147 160 164 165 177 178 179 186 186 194 198 197 197 195 201 210 210 215 222 222 217 204 205 218 235 247 253 257
109 101 86 73 62 57 51 63 70 81 83 90 101 130 145 161 173 174 172 174 183 195 190 190 198 200 209 205 196 209 212 213 225 231 229 221 198 186 201 230 231 241 243
112 103 92 79 65 62 60 55 67 75 82 91 96 106 128 156 186 171 153 167 194 215 205 203 207 209 225 176 172 209 244 228 229 234 234 214 198 197 198 213 216 217 226
83 87 94 81 63 46 53 57 70 77 88 91 76 61 128 148 41 290 153 173 198 225 225 217 214 207 196 169 178 206 252 242 238 236 230 239 220 197 204 214 220 223 228
66 68 72 72 67 62 62 61 63 80 79 82 75 19 224 210 229 293 286 212 216 219 220 231 229 221 204 185 188 208 237 242 234 238 235 231 226 223 205 216 216 220 225
75 83 72 74 65 58 81 73 40 43 54 20 4 336 330 335 297 283 284 254 241 237 235 230 225 229 207 189 187 192 234 237 237 239 240 230 221 211 199 216 222 222 234
65 75 70 70 68 46 56 87 62 9 333 326 314 316 329 334 311 300 280 253 247 239 241 243 232 232 214 189 192 196 232 245 250 237 233 228 221 204 199 212 222 232 237
63 70 65 61 57 45 34 330 335 311 315 325 322 316 317 302 283 293 289 272 263 259 254 253 250 241 223 196 202 202 220 244 259 250 230 221 200 207 213 219 226 233 242
47 56 55 40 26 15 351 312 321 314 314 315 308 317 311 292 297 319 283 277 271 265 260 253 255 242 220 200 204 207 225 248 261 264 259 239 207 224 234 232 233 236 244
42 39 41 41 29 10 353 330 332 332 324 322 311 306 304 295 288 263 253 247 247 260 267 260 263 251 222 186 185 205 227 241 255 276 282 266 249 241 240 235 232 229 231
60 17 18 40 28 12 3 350 330 337 328 307 297 283 273 273 279 270 267 265 270 273 283 285 280 274 250 193 166 206 227 242 254 273 282 266 251 245 244 239 228 221 226
60 23 12 9 1 360 347 349 341 333 327 310 301 284 270 271 276 275 287 277 297 292 278 300 307 300 293 276 236 234 240 241 247 263 264 264 250 235 232 230 224 222 221
68 22 355 348 353 353 337 345 346 329 313 302 299 298 294 287 279 274 279 271 228 216 226 238 256 291 277 262 249 244 250 249 237 234 251 254 250 247 246 246 237 223 221